| time (UTC) | temp C | wind direction | speed KPH | gust KPH | rain 1hr cm | rain 24hr cm | rain mn cm | humidity % | barometer mb |
| 20260503223849 | 20 | 310 | 0.0 | 1.6 | 0.00 | 0.00 | 0.00 | 62 | 1017.6 |
| 20260503223347 | 20 | 316 | 0.0 | 0.0 | 0.00 | 0.00 | 0.00 | 65 | 1017.4 |
| 20260503222842 | 21 | 314 | 1.6 | 1.6 | 0.00 | 0.00 | 0.00 | 65 | 1017.6 |
| 20260503222341 | 21 | 301 | 0.0 | 0.0 | 0.00 | 0.00 | 0.00 | 57 | 1017.6 |
| 20260503221839 | 22 | 342 | 1.6 | 1.6 | 0.00 | 0.00 | 0.00 | 53 | 1017.5 |
| 20260503221337 | 22 | 318 | 1.6 | 1.6 | 0.00 | 0.00 | 0.00 | 60 | 1017.4 |
| 20260503220832 | 22 | 328 | 0.0 | 1.6 | 0.00 | 0.00 | 0.00 | 48 | 1017.5 |
| 20260503220330 | 22 | 358 | 0.0 | 1.6 | 0.00 | 0.00 | 0.00 | 52 | 1017.3 |
| 20260503215827 | 22 | 324 | 1.6 | 1.6 | 0.00 | 0.00 | 0.00 | 49 | 1017.3 |
| 20260503215324 | 22 | 326 | 0.0 | 0.0 | 0.00 | 0.00 | 0.00 | 49 | 1017.3 |
| 20260503214822 | 22 | 323 | 0.0 | 1.6 | 0.00 | 0.00 | 0.00 | 53 | 1017.3 |
| 20260503214319 | 23 | 331 | 3.2 | 3.2 | 0.00 | 0.00 | 0.00 | 49 | 1017.5 |
| 20260503213816 | 23 | 330 | 3.2 | 3.2 | 0.00 | 0.00 | 0.00 | 50 | 1017.3 |
| 20260503213313 | 23 | 324 | 1.6 | 1.6 | 0.00 | 0.00 | 0.00 | 48 | 1017.5 |
| 20260503212809 | 22 | 310 | 1.6 | 1.6 | 0.00 | 0.00 | 0.00 | 54 | 1017.3 |
| 20260503212307 | 22 | 310 | 1.6 | 1.6 | 0.00 | 0.00 | 0.00 | 51 | 1017.3 |
| 20260503211800 | 22 | 302 | 1.6 | 1.6 | 0.00 | 0.00 | 0.00 | 52 | 1017.4 |
| 20260503211256 | 22 | 303 | 1.6 | 1.6 | 0.00 | 0.00 | 0.00 | 53 | 1017.5 |
| 20260503210755 | 22 | 351 | 4.8 | 4.8 | 0.00 | 0.00 | 0.00 | 52 | 1017.5 |
| 20260503210253 | 22 | 300 | 0.0 | 1.6 | 0.00 | 0.00 | 0.00 | 54 | 1017.6 |
| 20260503205748 | 22 | 331 | 0.0 | 0.0 | 0.00 | 0.00 | 0.00 | 50 | 1017.6 |
| 20260503205245 | 23 | 293 | 1.6 | 1.6 | 0.00 | 0.00 | 0.00 | 47 | 1017.8 |
| 20260503204742 | 22 | 257 | 0.0 | 1.6 | 0.00 | 0.00 | 0.00 | 53 | 1017.6 |
| 20260503204240 | 23 | 223 | 4.8 | 4.8 | 0.00 | 0.00 | 0.00 | 54 | 1017.7 |
| 20260503203737 | 23 | 334 | 0.0 | 1.6 | 0.00 | 0.00 | 0.00 | 50 | 1017.6 |
| 20260503203234 | 23 | 327 | 0.0 | 1.6 | 0.00 | 0.00 | 0.00 | 53 | 1017.8 |
| 20260503202731 | 23 | 333 | 3.2 | 4.8 | 0.00 | 0.00 | 0.00 | 51 | 1017.7 |
| 20260503202229 | 22 | 325 | 0.0 | 0.0 | 0.00 | 0.00 | 0.00 | 52 | 1018.0 |
| 20260503201727 | 23 | 326 | 0.0 | 1.6 | 0.00 | 0.00 | 0.00 | 50 | 1018.0 |
| 20260503201224 | 23 | 0 | 0.0 | 1.6 | 0.00 | 0.00 | 0.00 | 56 | 1017.9 |
| 20260503200720 | 22 | 328 | 0.0 | 0.0 | 0.00 | 0.00 | 0.00 | 56 | 1018.1 |
| 20260503200217 | 22 | 302 | 1.6 | 1.6 | 0.00 | 0.00 | 0.00 | 53 | 1018.2 |
| 20260503195713 | 22 | 323 | 0.0 | 0.0 | 0.00 | 0.00 | 0.00 | 48 | 1018.3 |
| 20260503195210 | 22 | 302 | 3.2 | 3.2 | 0.00 | 0.00 | 0.00 | 48 | 1018.3 |
| 20260503194708 | 22 | 117 | 6.4 | 8.0 | 0.00 | 0.00 | 0.00 | 48 | 1018.4 |
| 20260503194204 | 22 | 321 | 0.0 | 1.6 | 0.00 | 0.00 | 0.00 | 50 | 1018.5 |
| 20260503193700 | 22 | 337 | 0.0 | 1.6 | 0.00 | 0.00 | 0.00 | 54 | 1018.4 |
| 20260503193156 | 22 | 31 | 8.0 | 9.7 | 0.00 | 0.00 | 0.00 | 51 | 1018.6 |
| 20260503192651 | 23 | 17 | 3.2 | 3.2 | 0.00 | 0.00 | 0.00 | 48 | 1019.0 |
| 20260503192146 | 22 | 341 | 1.6 | 1.6 | 0.00 | 0.00 | 0.00 | 50 | 1018.8 |
| 20260503191638 | 22 | 306 | 1.6 | 1.6 | 0.00 | 0.00 | 0.00 | 54 | 1019.0 |
| 20260503191135 | 21 | 282 | 0.0 | 1.6 | 0.00 | 0.00 | 0.00 | 56 | 1019.5 |
| 20260503190632 | 21 | 329 | 1.6 | 1.6 | 0.00 | 0.00 | 0.00 | 51 | 1019.3 |
| 20260503190129 | 22 | 348 | 1.6 | 3.2 | 0.00 | 0.00 | 0.00 | 52 | 1019.3 |
| 20260503185626 | 21 | 346 | 4.8 | 9.7 | 0.00 | 0.00 | 0.00 | 51 | 1019.4 |
| 20260503185121 | 21 | 318 | 0.0 | 0.0 | 0.00 | 0.00 | 0.00 | 52 | 1019.5 |
| 20260503184616 | 21 | 312 | 3.2 | 3.2 | 0.00 | 0.00 | 0.00 | 54 | 1019.7 |
| 20260503184113 | 21 | 326 | 1.6 | 1.6 | 0.00 | 0.00 | 0.00 | 51 | 1019.6 |
| 20260503183610 | 22 | 322 | 1.6 | 1.6 | 0.00 | 0.00 | 0.00 | 53 | 1019.6 |
| 20260503183107 | 22 | 317 | 0.0 | 1.6 | 0.00 | 0.00 | 0.00 | 49 | 1019.6 |
| 20260503182605 | 21 | 331 | 1.6 | 1.6 | 0.00 | 0.00 | 0.00 | 48 | 1019.8 |
| 20260503182103 | 21 | 325 | 1.6 | 1.6 | 0.00 | 0.00 | 0.00 | 48 | 1019.6 |
| 20260503181559 | 21 | 23 | 1.6 | 3.2 | 0.00 | 0.00 | 0.00 | 53 | 1019.6 |
| 20260503181056 | 20 | 329 | 0.0 | 1.6 | 0.00 | 0.00 | 0.00 | 51 | 1020.0 |
| 20260503180553 | 21 | 339 | 1.6 | 1.6 | 0.00 | 0.00 | 0.00 | 55 | 1019.9 |
| 20260503180051 | 21 | 315 | 1.6 | 1.6 | 0.00 | 0.00 | 0.00 | 54 | 1019.8 |
| 20260503175548 | 22 | 320 | 0.0 | 0.0 | 0.00 | 0.00 | 0.00 | 52 | 1019.8 |
| 20260503175045 | 21 | 342 | 3.2 | 3.2 | 0.00 | 0.00 | 0.00 | 51 | 1020.0 |
| 20260503174542 | 22 | 319 | 0.0 | 1.6 | 0.00 | 0.00 | 0.00 | 53 | 1020.0 |
| 20260503174038 | 22 | 315 | 1.6 | 1.6 | 0.00 | 0.00 | 0.00 | 49 | 1020.1 |
| 20260503173533 | 21 | 303 | 0.0 | 0.0 | 0.00 | 0.00 | 0.00 | 50 | 1020.2 |
| 20260503173030 | 22 | 339 | 3.2 | 4.8 | 0.00 | 0.00 | 0.00 | 49 | 1020.2 |
| 20260503172528 | 22 | 318 | 1.6 | 3.2 | 0.00 | 0.00 | 0.00 | 54 | 1020.2 |
| 20260503172024 | 22 | 187 | 3.2 | 3.2 | 0.00 | 0.00 | 0.00 | 56 | 1020.2 |
| 20260503171521 | 21 | 332 | 1.6 | 1.6 | 0.00 | 0.00 | 0.00 | 57 | 1020.2 |
| 20260503171018 | 21 | 326 | 1.6 | 1.6 | 0.00 | 0.00 | 0.00 | 54 | 1020.2 |
| 20260503170514 | 20 | 329 | 0.0 | 1.6 | 0.00 | 0.00 | 0.00 | 53 | 1020.2 |
| 20260503150907 | 18 | 319 | 0.0 | 1.6 | 0.00 | 0.00 | 0.00 | 63 | 1020.8 |
| 20260503150403 | 18 | 286 | 3.2 | 3.2 | 0.00 | 0.00 | 0.00 | 63 | 1020.9 |
| 20260503131257 | 12 | 311 | 1.6 | 1.6 | 0.00 | 0.00 | 0.00 | 99 | 1020.4 |
| 20260503130754 | 12 | 318 | 0.0 | 0.0 | 0.00 | 0.00 | 0.00 | 99 | 1020.5 |
| 20260503130251 | 12 | 311 | 0.0 | 0.0 | 0.00 | 0.00 | 0.00 | 99 | 1020.5 |
| 20260503120217 | 8 | 319 | 0.0 | 0.0 | 0.00 | 0.00 | 0.00 | 99 | 1020.1 |
| 20260503110645 | 6 | 320 | 0.0 | 0.0 | 0.00 | 0.00 | 0.00 | 99 | 1019.2 |
| 20260503110142 | 6 | 322 | 0.0 | 0.0 | 0.00 | 0.00 | 0.00 | 99 | 1019.0 |
| 20260503100108 | 6 | 319 | 0.0 | 0.0 | 0.00 | 0.00 | 0.00 | 99 | 1018.8 |
| 20260503081440 | 7 | 321 | 0.0 | 0.0 | 0.00 | 0.00 | 0.00 | 99 | 1017.6 |
| 20260503080937 | 7 | 320 | 0.0 | 0.0 | 0.00 | 0.00 | 0.00 | 99 | 1017.5 |
| 20260503080433 | 7 | 322 | 0.0 | 0.0 | 0.00 | 0.00 | 0.00 | 99 | 1017.5 |
| 20260503072904 | 7 | 319 | 0.0 | 0.0 | 0.00 | 0.00 | 0.00 | 99 | 1017.1 |
| 20260503072401 | 7 | 320 | 0.0 | 0.0 | 0.00 | 0.00 | 0.00 | 99 | 1017.1 |
| 20260503071857 | 7 | 320 | 0.0 | 0.0 | 0.00 | 0.00 | 0.00 | 99 | 1017.0 |
| 20260503071355 | 8 | 320 | 0.0 | 0.0 | 0.00 | 0.00 | 0.00 | 99 | 1017.0 |
| 20260503070850 | 8 | 321 | 0.0 | 0.0 | 0.00 | 0.00 | 0.00 | 99 | 1017.2 |
| 20260503070349 | 8 | 321 | 0.0 | 0.0 | 0.00 | 0.00 | 0.00 | 99 | 1017.1 |
| 20260503060309 | 8 | 323 | 0.0 | 0.0 | 0.00 | 0.00 | 0.00 | 99 | 1017.0 |
| 20260503054755 | 8 | 322 | 0.0 | 0.0 | 0.00 | 0.00 | 0.00 | 99 | 1016.9 |
| 20260503054251 | 8 | 321 | 0.0 | 0.0 | 0.00 | 0.00 | 0.00 | 99 | 1017.0 |
| 20260503053750 | 8 | 319 | 0.0 | 0.0 | 0.00 | 0.00 | 0.00 | 99 | 1016.9 |
| 20260503053243 | 8 | 320 | 0.0 | 0.0 | 0.00 | 0.00 | 0.00 | 99 | 1016.9 |
| 20260503052739 | 8 | 319 | 0.0 | 0.0 | 0.00 | 0.00 | 0.00 | 99 | 1017.1 |
| 20260503052236 | 8 | 323 | 0.0 | 0.0 | 0.00 | 0.00 | 0.00 | 99 | 1017.0 |
| 20260503051731 | 9 | 322 | 0.0 | 0.0 | 0.00 | 0.00 | 0.00 | 99 | 1017.0 |
| 20260503051229 | 9 | 322 | 0.0 | 0.0 | 0.00 | 0.00 | 0.00 | 99 | 1016.8 |
| 20260503050725 | 9 | 324 | 0.0 | 0.0 | 0.00 | 0.00 | 0.00 | 99 | 1016.8 |
| 20260503050221 | 9 | 321 | 0.0 | 0.0 | 0.00 | 0.00 | 0.00 | 99 | 1016.6 |
| 20260503045719 | 9 | 323 | 0.0 | 0.0 | 0.00 | 0.00 | 0.00 | 99 | 1016.5 |
| 20260503045217 | 9 | 319 | 0.0 | 0.0 | 0.00 | 0.00 | 0.00 | 99 | 1016.6 |
| 20260503044713 | 10 | 323 | 0.0 | 0.0 | 0.00 | 0.00 | 0.00 | 99 | 1016.5 |
| 20260503044210 | 10 | 321 | 0.0 | 0.0 | 0.00 | 0.00 | 0.00 | 99 | 1016.7 |
| 20260503043707 | 10 | 322 | 0.0 | 0.0 | 0.00 | 0.00 | 0.00 | 99 | 1016.5 |
| 20260503043205 | 10 | 318 | 0.0 | 0.0 | 0.00 | 0.00 | 0.00 | 99 | 1016.4 |
| 20260503042700 | 10 | 319 | 0.0 | 0.0 | 0.00 | 0.00 | 0.00 | 99 | 1016.3 |
| 20260503042157 | 10 | 321 | 0.0 | 0.0 | 0.00 | 0.00 | 0.00 | 99 | 1016.4 |
| 20260503041653 | 10 | 321 | 0.0 | 0.0 | 0.00 | 0.00 | 0.00 | 99 | 1016.4 |
| 20260503041151 | 10 | 321 | 0.0 | 0.0 | 0.00 | 0.00 | 0.00 | 99 | 1016.2 |
| 20260503040648 | 10 | 323 | 0.0 | 0.0 | 0.00 | 0.00 | 0.00 | 99 | 1016.3 |
| 20260503040146 | 10 | 322 | 0.0 | 0.0 | 0.00 | 0.00 | 0.00 | 99 | 1016.2 |
| 20260503035642 | 10 | 322 | 0.0 | 0.0 | 0.00 | 2.69 | 2.69 | 99 | 1016.1 |
| 20260503035140 | 10 | 316 | 0.0 | 0.0 | 0.00 | 2.69 | 2.69 | 99 | 1016.0 |
| 20260503034637 | 10 | 321 | 0.0 | 0.0 | 0.00 | 2.69 | 2.69 | 99 | 1016.1 |
| 20260503034134 | 10 | 319 | 0.0 | 0.0 | 0.00 | 2.69 | 2.69 | 99 | 1016.1 |
| 20260503033631 | 10 | 321 | 0.0 | 0.0 | 0.00 | 2.69 | 2.69 | 99 | 1015.8 |
| 20260503033129 | 10 | 320 | 0.0 | 0.0 | 0.00 | 2.69 | 2.69 | 99 | 1015.9 |
| 20260503032627 | 10 | 318 | 0.0 | 0.0 | 0.00 | 2.69 | 2.69 | 99 | 1015.7 |
| 20260503032125 | 10 | 319 | 0.0 | 0.0 | 0.00 | 2.69 | 2.69 | 99 | 1015.6 |
| 20260503031622 | 10 | 321 | 0.0 | 0.0 | 0.00 | 2.69 | 2.69 | 99 | 1015.7 |
| 20260503031120 | 10 | 322 | 0.0 | 0.0 | 0.00 | 2.69 | 2.69 | 99 | 1015.7 |
| 20260503030616 | 10 | 320 | 0.0 | 0.0 | 0.00 | 2.69 | 2.69 | 99 | 1015.5 |
| 20260503030113 | 10 | 318 | 0.0 | 0.0 | 0.00 | 2.69 | 2.69 | 99 | 1015.7 |
| 20260503025609 | 10 | 322 | 0.0 | 0.0 | 0.00 | 2.69 | 2.69 | 99 | 1015.3 |
| 20260503025107 | 10 | 323 | 0.0 | 0.0 | 0.00 | 2.69 | 2.69 | 99 | 1015.2 |
| 20260503024603 | 10 | 324 | 0.0 | 0.0 | 0.00 | 2.69 | 2.69 | 99 | 1015.0 |
| 20260503024101 | 10 | 322 | 0.0 | 0.0 | 0.00 | 2.69 | 2.69 | 99 | 1014.9 |
| 20260503023557 | 10 | 322 | 0.0 | 0.0 | 0.00 | 2.69 | 2.69 | 99 | 1014.9 |
| 20260503023054 | 10 | 323 | 0.0 | 0.0 | 0.00 | 2.69 | 2.69 | 99 | 1014.8 |
| 20260503022550 | 10 | 320 | 0.0 | 0.0 | 0.00 | 2.69 | 2.69 | 99 | 1014.9 |
| 20260503022045 | 11 | 322 | 0.0 | 0.0 | 0.00 | 2.69 | 2.69 | 99 | 1014.9 |
| 20260503021542 | 11 | 319 | 0.0 | 0.0 | 0.00 | 2.69 | 2.69 | 99 | 1014.7 |
| 20260503021039 | 11 | 318 | 0.0 | 0.0 | 0.00 | 2.69 | 2.69 | 99 | 1014.7 |
| 20260503020536 | 11 | 318 | 0.0 | 0.0 | 0.00 | 2.69 | 2.69 | 99 | 1014.6 |
| 20260503020033 | 11 | 314 | 0.0 | 0.0 | 0.00 | 2.69 | 2.69 | 99 | 1014.7 |
| 20260503015530 | 11 | 317 | 0.0 | 0.0 | 0.00 | 2.69 | 2.69 | 99 | 1014.5 |
| 20260503015027 | 11 | 321 | 0.0 | 0.0 | 0.00 | 2.69 | 2.69 | 99 | 1014.5 |
| 20260503014523 | 11 | 318 | 0.0 | 0.0 | 0.00 | 2.69 | 2.69 | 99 | 1014.6 |
| 20260503014021 | 11 | 319 | 0.0 | 0.0 | 0.00 | 2.69 | 2.69 | 99 | 1014.6 |
| 20260503013518 | 11 | 317 | 0.0 | 0.0 | 0.00 | 2.69 | 2.69 | 99 | 1014.4 |
| 20260503013016 | 11 | 318 | 0.0 | 0.0 | 0.00 | 2.69 | 2.69 | 99 | 1014.3 |
| 20260503012513 | 12 | 317 | 0.0 | 0.0 | 0.00 | 2.69 | 2.69 | 99 | 1014.3 |
| 20260503012009 | 11 | 319 | 0.0 | 0.0 | 0.00 | 2.69 | 2.69 | 99 | 1014.3 |
| 20260503011506 | 11 | 325 | 0.0 | 0.0 | 0.00 | 2.69 | 2.69 | 99 | 1014.2 |
| 20260503011004 | 11 | 312 | 0.0 | 0.0 | 0.00 | 2.69 | 2.69 | 99 | 1014.0 |
| 20260503010459 | 11 | 320 | 0.0 | 0.0 | 0.00 | 2.69 | 2.69 | 99 | 1013.9 |
| 20260503005957 | 12 | 321 | 0.0 | 0.0 | 0.00 | 2.69 | 2.69 | 99 | 1014.0 |
| 20260503005454 | 12 | 319 | 0.0 | 0.0 | 0.00 | 2.69 | 2.69 | 99 | 1013.9 |
| 20260503004951 | 12 | 323 | 0.0 | 0.0 | 0.00 | 2.69 | 2.69 | 99 | 1013.9 |
| 20260503004447 | 12 | 316 | 0.0 | 0.0 | 0.00 | 2.69 | 2.69 | 99 | 1013.9 |
| 20260503003945 | 12 | 313 | 0.0 | 0.0 | 0.00 | 2.69 | 2.69 | 99 | 1013.7 |
| 20260503003442 | 12 | 317 | 0.0 | 0.0 | 0.00 | 2.69 | 2.69 | 99 | 1014.0 |
| 20260503002939 | 12 | 318 | 0.0 | 0.0 | 0.00 | 2.69 | 2.69 | 99 | 1013.6 |
| 20260503002436 | 12 | 319 | 0.0 | 0.0 | 0.00 | 2.69 | 2.69 | 99 | 1013.8 |
| 20260503001932 | 12 | 321 | 0.0 | 0.0 | 0.00 | 2.69 | 2.69 | 99 | 1013.7 |
| 20260503001429 | 12 | 313 | 0.0 | 0.0 | 0.00 | 2.69 | 2.69 | 99 | 1013.5 |
| 20260503000927 | 12 | 317 | 0.0 | 0.0 | 0.00 | 2.69 | 2.69 | 99 | 1013.7 |
| 20260503000423 | 12 | 317 | 0.0 | 0.0 | 0.00 | 2.69 | 2.69 | 99 | 1013.3 |
| 20260502235920 | 12 | 319 | 0.0 | 0.0 | 0.00 | 2.69 | 2.69 | 99 | 1013.4 |
| 20260502235417 | 12 | 312 | 0.0 | 0.0 | 0.00 | 2.69 | 2.69 | 99 | 1013.2 |
| 20260502234914 | 12 | 321 | 0.0 | 0.0 | 0.00 | 2.69 | 2.69 | 99 | 1013.1 |
| 20260502234410 | 12 | 323 | 0.0 | 0.0 | 0.00 | 2.69 | 2.69 | 99 | 1013.1 |
| 20260502233908 | 12 | 320 | 0.0 | 0.0 | 0.00 | 2.69 | 2.69 | 99 | 1012.9 |
| 20260502233358 | 12 | 324 | 0.0 | 0.0 | 0.00 | 2.69 | 2.69 | 99 | 1012.7 |
| 20260502232855 | 12 | 298 | 0.0 | 1.6 | 0.00 | 2.69 | 2.69 | 99 | 1012.6 |
| 20260502232351 | 12 | 314 | 0.0 | 0.0 | 0.00 | 2.69 | 2.69 | 99 | 1012.8 |
| 20260502231848 | 12 | 317 | 0.0 | 0.0 | 0.00 | 2.69 | 2.69 | 99 | 1012.8 |
| 20260502231346 | 12 | 309 | 0.0 | 0.0 | 0.00 | 2.69 | 2.69 | 99 | 1012.6 |
| 20260502230844 | 12 | 317 | 0.0 | 0.0 | 0.00 | 2.69 | 2.69 | 99 | 1012.7 |
| 20260502230342 | 12 | 311 | 0.0 | 0.0 | 0.00 | 2.69 | 2.69 | 99 | 1012.7 |
| 20260502225838 | 12 | 323 | 0.0 | 0.0 | 0.00 | 2.69 | 2.69 | 99 | 1013.0 |
| 20260502225335 | 12 | 301 | 0.0 | 0.0 | 0.00 | 2.69 | 2.69 | 99 | 1012.7 |
| 20260502224832 | 12 | 321 | 0.0 | 0.0 | 0.00 | 2.69 | 2.69 | 99 | 1012.7 |
| 20260502224328 | 12 | 321 | 0.0 | 0.0 | 0.00 | 2.69 | 2.69 | 99 | 1012.7 |